Location: Peterborough
(44.3091°N, 78.3197°W)
Time: 04:32:09
(UTC-04:00)

Tiros 1 despin weight - Pass Details

Date: 26 March 2023
Orbit: 586 x 632 km, 48.2° (Epoch: 08 June)

Event Time Altitude Azimuth Distance (km) Brightness Sun altitude
Rises 20:25:46 0° 204° (SSW) 2,793 ? -10.1°
Reaches altitude 10° 20:28:26 10° 188° (S) 1,897 ? -10.6°
Maximum altitude 20:31:44 21° 138° (SE) 1,318 ? -11.2°
Enters shadow 20:33:32 17° 106° (ESE) 1,519 ? -11.5°
Drops below altitude 10° 20:35:04 10° 89° (E) 1,913 - -11.8°
Sets 20:37:46 0° 73° (ENE) 2,823 - -12.2°
